GFSNW_prec_cloud_273.txt.gz
Cloud_Cover
91 0 0 0 0 0 0 0 0 0 0 0 0 0 0 0 0 0 0 0 0 0 0 0 0 0 0 0 0 0 0 0 0 0 0 0 0 0 0 3 66 0 89 32
100 66 42 0 0 0 0 0 0 0 2 0 0 0 0 0 0 0 0 0 0 0 0 0 0 0 0 0 0 0 0 0 0 0 0 0 0 0 0 1 4 2 94 96
100 100 100 0 0 0 9 0 0 0 0 0 0 0 0 0 0 0 0 0 0 0 0 0 0 0 0 0 0 0 0 0 0 0 3 70 19 2 0 0 0 0 12 27
100 100 64 0 0 0 1 0 3 4 39 1 0 0 0 0 0 0 0 0 0 0 0 0 0 0 0 0 0 0 0 0 0 0 0 6 66 46 2 0 0 0 0 0
100 100 100 29 0 0 0 0 2 1 4 0 0 0 0 0 0 0 0 0 0 0 0 0 0 0 0 0 0 0 0 0 0 0 0 0 0 0 0 0 0 0 0 0
100 100 100 100 0 0 0 0 0 1 0 0 0 0 0 0 0 0 0 0 0 0 0 0 0 0 0 0 0 0 0 0 0 0 0 0 0 0 50 4 0 0 0 0
100 100 100 100 2 0 0 0 0 3 5 9 3 0 0 0 0 0 0 0 0 0 0 0 0 0 2 3 0 1 0 0 0 0 0 0 0 4 39 26 0 0 0 0
100 100 100 2 0 0 0 0 1 23 16 5 4 0 0 0 0 0 0 0 0 0 0 0 0 0 0 0 6 10 1 1 0 0 0 0 0 4 48 11 0 0 0 0
79 43 98 99 5 5 0 1 8 67 87 80 0 0 0 4 0 0 0 0 0 0 0 0 0 0 0 4 5 5 11 74 8 5 1 0 0 0 0 5 0 0 0 0
17 20 73 98 5 28 9 6 100 90 26 46 5 2 0 5 48 5 0 0 0 0 0 0 0 0 0 2 5 4 4 0 1 5 0 0 0 0 0 1 2 0 0 0
3 40 13 57 6 88 96 17 100 100 10 100 100 88 0 3 38 84 1 4 0 0 0 0 0 0 0 0 0 0 0 0 2 0 0 3 0 0 0 0 0 0 0 0
74 16 98 80 100 100 100 9 100 100 98 3 4 93 79 5 5 15 5 32 27 0 0 0 0 10 20 0 0 60 18 22 4 5 5 0 0 0 0 0 0 0 0 0
1 0 15 6 100 99 100 99 100 100 100 65 5 90 100 17 7 5 6 13 0 0 0 0 0 69 80 50 74 5 5 28 11 5 5 0 1 1 0 0 0 0 0 0
5 0 5 5 80 100 100 100 100 100 100 97 68 100 72 64 4 55 78 4 0 0 0 0 2 33 5 3 8 5 12 87 4 0 0 0 5 3 2 0 0 0 0 0
5 0 1 5 89 100 100 100 100 100 100 64 39 80 100 97 6 65 100 66 3 3 2 2 4 5 4 5 5 18 5 0 0 0 0 1 0 0 0 0 0 0 0 0
5 1 1 1 100 100 100 100 100 100 100 100 33 92 100 97 57 100 100 74 63 98 8 45 5 5 5 1 5 5 0 0 0 2 0 0 0 0 0 0 0 0 0 0
2 0 1 9 100 100 100 100 100 100 100 98 57 100 100 100 58 90 100 100 100 100 100 100 16 47 5 3 5 4 0 0 0 0 0 0 0 0 0 0 0 1 0 0
0 1 0 35 100 100 100 100 100 100 100 76 23 85 65 27 23 12 99 100 100 100 100 99 25 49 5 5 5 0 1 1 2 1 0 5 1 0 1 2 0 1 2 22
1 0 5 100 100 100 100 100 100 94 85 89 11 95 99 97 17 0 5 50 97 100 100 100 61 5 10 23 5 5 5 5 8 5 1 0 78 14 3 0 0 13 42 74
0 4 100 100 100 100 100 100 84 39 69 84 10 99 100 100 70 36 1 0 5 10 99 100 39 26 98 93 90 95 13 4 0 0 0 6 0 47 54 55 100 100 4 18
35 100 100 100 100 100 100 100 100 43 6 5 5 20 100 73 81 89 3 0 0 0 4 5 39 40 25 45 5 2 0 0 0 0 0 1 1 69 78 64 39 5 22 92
100 100 100 100 100 100 100 100 100 24 62 5 5 9 95 97 78 13 8 20 5 5 3 2 0 0 0 0 0 1 1 0 0 0 3 0 4 18 48 94 99 93 48 99
100 100 100 100 100 100 100 100 100 6 51 61 22 28 89 100 100 100 45 82 71 21 5 5 1 0 1 0 5 5 0 3 0 0 3 4 0 0 0 8 3 1 6 52
100 100 100 100 100 100 100 100 100 100 100 100 100 100 100 100 100 100 100 100 100 37 32 6 5 5 5 18 98 100 80 23 5 5 5 5 0 22 16 5 6 0 0 0
100 100 100 100 100 100 100 100 12 6 82 49 100 100 100 100 100 100 100 100 100 91 67 13 5 5 33 100 100 100 100 98 99 6 4 4 0 0 0 0 0 0 0 31
100 100 100 100 100 100 100 100 66 6 5 5 94 70 98 100 100 100 100 100 100 100 100 100 32 98 39 100 100 100 100 81 26 8 38 7 0 0 0 5 5 5 5 13
100 100 100 100 100 100 100 100 100 86 5 77 88 100 94 60 100 100 98 99 99 89 100 100 100 14 3 63 100 100 12 44 55 2 0 2 5 5 6 10 50 5 8 14

GFSNW_prec_cloud_276.txt.gz
Cloud_Cover
100 100 68 0 0 0 0 0 0 0 0 0 0 0 0 0 0 0 0 0 0 0 0 0 0 0 0 0 0 0 0 0 0 0 1 3 0 0 0 0 0 0 0 0
100 100 100 4 0 2 21 0 0 0 0 0 0 0 0 0 0 0 0 0 0 0 0 0 0 0 0 0 0 0 0 0 0 0 0 0 0 0 0 0 0 0 0 0
100 100 100 7 0 0 12 0 3 1 0 0 0 0 0 0 0 0 0 0 0 0 0 0 0 0 0 0 0 0 0 0 0 0 0 0 0 0 0 0 0 0 0 0
100 100 88 87 0 0 1 0 0 1 3 0 0 0 0 0 0 0 0 0 0 0 0 0 0 0 0 0 0 0 0 0 0 0 0 0 0 0 0 0 0 0 0 0
100 100 82 71 0 0 0 0 0 0 0 0 0 0 0 0 0 0 0 0 0 0 0 0 0 0 0 0 0 0 0 0 0 0 0 0 0 0 0 0 0 0 0 0
100 100 100 100 2 0 3 0 0 0 1 0 0 0 0 0 0 0 0 0 0 0 0 0 0 0 0 0 0 0 0 0 0 0 0 0 0 0 0 0 0 0 0 0
41 100 100 100 0 0 1 0 0 0 1 7 37 0 0 0 0 0 0 0 0 0 0 0 0 0 0 0 0 0 0 0 0 0 0 0 0 0 0 0 0 0 0 0
0 49 100 92 0 0 9 0 0 7 17 5 74 0 0 0 0 0 0 0 0 0 0 0 0 0 0 0 0 0 0 0 0 0 0 0 0 0 0 0 0 0 0 0
0 0 0 8 48 0 7 1 0 21 90 4 28 1 1 0 0 0 0 0 0 0 0 0 0 0 0 0 0 0 0 0 0 0 0 0 0 0 0 0 0 0 0 0
0 0 0 16 8 0 8 18 74 61 64 5 36 14 5 0 0 0 0 0 0 0 0 0 0 0 0 0 0 0 0 0 0 0 0 0 0 0 0 0 0 0 0 0
0 51 0 3 5 5 10 47 100 75 91 13 38 32 3 0 0 0 0 0 0 0 0 0 0 0 0 0 0 1 1 2 0 0 0 0 0 0 0 0 0 0 0 0
4 6 1 14 5 5 87 40 100 100 72 95 99 99 100 1 0 0 0 0 0 0 0 0 0 0 0 0 0 0 3 4 4 3 0 0 0 0 0 0 0 0 0 0
5 0 0 5 73 26 77 26 100 100 100 100 33 100 100 98 65 0 0 0 0 0 0 0 0 0 0 0 0 0 0 0 0 0 0 0 0 0 0 0 0 0 0 0
5 4 0 1 39 43 92 93 67 100 100 100 93 100 100 100 100 100 35 0 0 0 0 0 0 0 0 0 0 0 0 0 0 0 0 0 0 0 0 0 0 0 0 0
5 5 2 0 4 16 100 100 100 100 99 95 90 100 100 100 100 100 75 4 0 0 0 0 0 0 0 0 0 1 2 0 0 0 0 0 0 0 0 0 0 0 0 0
5 5 4 0 4 5 80 100 100 100 100 100 99 100 100 100 100 100 100 99 61 57 0 0 0 0 0 0 0 0 0 2 0 2 4 5 2 0 0 0 0 0 0 0
5 4 5 0 0 5 66 100 100 100 100 99 96 100 100 100 100 100 100 100 100 100 90 30 0 0 0 0 0 0 0 0 0 5 2 0 0 0 0 0 0 0 0 1
5 5 1 0 0 7 94 100 100 100 100 94 99 100 100 100 100 100 96 100 100 100 100 95 7 4 42 4 0 0 0 2 2 5 1 0 0 5 0 0 0 0 0 0
5 5 0 1 12 100 100 100 100 100 99 58 99 100 100 100 100 100 100 100 100 100 100 100 94 28 1 5 98 41 24 96 15 5 5 5 5 5 2 0 0 0 0 0
16 5 11 10 100 100 100 100 100 100 100 43 100 100 100 100 100 100 100 100 100 100 100 100 100 100 49 9 22 96 86 16 5 5 5 6 6 0 0 8 3 5 5 58
23 91 100 94 100 100 100 100 100 100 83 35 100 100 100 100 100 100 83 100 100 100 100 100 95 99 100 100 100 99 100 65 99 78 4 1 0 0 0 2 5 3 3 4
41 91 100 100 100 100 100 100 100 96 100 99 100 100 100 100 100 100 94 16 5 31 86 98 100 100 100 100 100 100 99 36 24 14 15 0 16 10 13 44 70 96 85 58
100 100 100 100 100 100 100 100 100 100 100 100 100 100 100 100 100 85 82 5 5 5 8 10 97 100 100 100 88 26 2 0 0 1 15 5 13 12 41 88 80 36 27 55
100 100 100 100 100 100 100 100 100 87 41 46 88 100 100 100 100 100 96 88 59 25 4 2 5 99 99 58 48 43 34 59 95 100 100 100 100 100 61 44 32 5 2 0
100 100 100 100 100 100 100 100 94 63 6 5 51 97 100 100 100 98 100 61 100 91 14 6 23 97 34 24 10 50 100 100 100 100 75 29 23 60 23 5 1 0 0 0
100 100 100 100 100 100 100 100 98 54 14 100 100 100 100 100 98 54 100 63 17 29 6 84 97 87 66 46 13 100 100 100 100 100 94 94 73 11 5 0 0 0 0 0
100 100 100 100 100 100 100 100 100 28 100 100 100 100 100 100 100 100 100 100 100 40 55 90 100 100 100 100 99 99 100 100 100 100 100 99 65 9 5 5 5 5 17 28

GFSNW_prec_cloud_279.txt.gz
Cloud_Cover
100 100 100 63 0 0 7 0 0 0 0 0 0 0 0 0 0 0 0 0 0 0 0 0 0 0 0 0 0 0 0 0 0 0 3 4 0 0 0 0 0 0 0 0
100 100 62 18 0 0 20 0 0 0 0 0 0 0 0 0 0 0 0 0 0 0 0 0 0 0 0 0 0 0 0 0 0 0 0 0 0 0 0 0 0 0 0 0
100 100 94 0 0 0 1 0 0 0 0 0 0 0 0 0 0 0 0 0 0 0 0 0 0 0 0 0 0 0 0 0 0 0 0 0 0 0 0 0 0 0 0 0
100 100 100 0 0 0 0 0 0 0 0 0 0 0 0 0 0 0 0 0 0 0 0 0 0 0 0 0 0 0 0 0 0 0 0 0 0 0 0 0 0 0 0 0
58 100 100 98 0 0 0 0 1 0 0 0 0 0 0 0 0 0 0 0 0 0 0 0 0 0 0 0 0 0 0 0 0 0 0 0 0 0 0 0 0 0 0 0
4 76 100 100 0 0 2 0 0 0 0 0 0 0 0 0 0 0 0 0 0 0 0 0 0 0 0 0 0 0 0 0 0 0 0 0 0 0 0 0 0 0 0 0
0 5 27 100 0 2 13 0 0 0 0 0 0 0 0 0 0 0 0 0 0 0 0 0 0 0 0 0 0 0 0 0 0 0 0 0 0 0 0 0 0 0 0 0
0 5 6 2 0 0 14 0 0 2 18 0 0 0 0 0 0 0 0 0 0 0 0 0 0 0 0 0 0 0 0 0 0 0 0 0 0 0 0 0 0 0 0 0
2 77 5 0 0 0 18 21 0 1 28 0 0 0 0 0 0 0 0 0 0 0 0 0 0 0 0 0 0 0 0 0 0 0 0 0 0 0 0 0 0 0 0 0
49 100 70 3 2 0 15 17 30 58 99 0 17 3 2 0 0 0 0 0 0 0 0 0 0 0 0 0 0 0 0 0 0 0 0 0 0 0 0 0 0 0 0 0
100 100 95 48 4 6 24 9 58 44 86 1 0 4 52 6 0 0 0 0 0 0 0 0 0 0 0 0 0 0 0 0 0 0 0 0 0 0 0 0 0 0 0 0
9 11 13 1 0 3 5 34 91 100 7 0 0 4 61 49 20 0 0 0 0 0 0 0 0 0 0 0 0 0 0 0 0 0 0 0 0 0 0 0 0 0 0 0
5 2 0 1 0 5 44 59 100 100 82 3 0 8 100 98 67 21 3 0 0 0 0 0 0 0 0 0 0 0 0 0 0 0 0 0 0 0 0 0 0 0 0 3
5 5 2 0 0 5 22 82 100 100 94 47 0 0 94 100 51 52 3 1 0 0 0 0 0 0 0 0 0 0 0 0 0 0 0 0 0 0 0 0 0 0 0 0
5 5 5 3 0 0 23 66 100 77 25 7 4 0 7 100 78 73 91 68 0 0 0 0 0 0 0 0 0 0 0 0 0 0 0 0 0 0 0 0 0 0 0 9
5 6 5 0 0 1 0 22 17 95 48 21 90 2 5 100 100 100 77 100 99 12 0 0 0 0 0 0 0 0 0 0 0 0 0 0 0 0 0 0 0 0 2 6
5 7 4 0 1 22 17 32 83 35 100 100 98 40 7 100 100 100 100 100 100 100 17 0 0 0 0 0 0 0 0 0 0 0 0 0 0 0 2 4 8 1 8 50
5 2 0 3 5 8 87 42 100 100 100 100 95 54 35 100 100 100 100 100 100 100 100 34 0 0 0 0 0 0 0 0 0 0 0 0 0 0 5 1 0 0 10 49
5 0 5 5 21 29 6 30 87 100 100 100 96 100 96 100 100 94 100 99 100 100 100 23 5 0 0 0 0 0 0 0 0 0 0 0 1 1 0 0 0 0 23 24
5 5 5 13 16 7 74 99 100 100 100 100 91 100 56 99 100 100 100 65 100 100 100 94 45 58 93 28 5 5 4 2 0 0 0 0 5 5 0 0 0 0 14 49
29 46 37 100 100 100 100 100 100 100 91 28 98 100 100 100 100 100 100 100 100 100 100 100 100 88 61 34 32 5 5 7 4 16 60 93 8 0 1 7 0 0 56 95
100 82 49 82 100 100 100 100 100 59 5 76 100 100 100 100 100 100 100 100 100 98 100 100 100 98 44 60 59 99 98 100 100 41 5 1 3 3 5 12 89 86 96 98
100 98 100 100 100 100 100 100 80 57 97 100 100 100 100 100 100 100 100 100 100 100 100 100 100 100 100 98 98 71 94 66 28 64 61 61 73 30 69 100 95 100 100 42
100 98 100 100 100 100 100 100 100 100 99 97 100 100 100 100 100 100 100 100 100 100 81 89 100 100 100 100 100 100 99 100 75 76 56 49 37 91 90 54 22 38 45 40
100 100 100 100 100 100 100 100 100 100 100 84 100 100 100 100 100 100 100 100 59 43 100 100 100 100 100 100 100 69 94 65 56 46 54 100 100 45 49 18 5 5 4 20
100 100 100 100 100 100 100 100 100 99 100 100 100 100 100 100 100 100 100 100 100 100 99 100 100 100 100 64 31 42 32 20 35 73 88 100 81 79 100 72 96 73 8 5
100 100 100 100 100 100 100 100 100 100 100 100 100 100 100 100 100 100 91 100 100 91 100 100 100 100 100 98 82 62 92 98 76 97 98 100 100 100 100 94 94 100 71 5

GFSNW_prec_cloud_285.txt.gz
Cloud_Cover
96 100 100 91 4 4 0 0 0 0 0 4 5 5 14 67 3 82 100 70 100 100 100 67 5 5 79 40 73 50 5 0 0 0 0 0 0 0 0 0 0 0 0 0
0 9 74 48 0 10 95 0 0 0 0 0 5 7 95 90 6 21 84 100 100 100 65 53 12 10 70 63 34 5 0 0 0 0 0 0 0 0 0 0 0 0 0 0
0 0 0 0 0 0 27 0 0 0 5 5 5 6 20 96 5 5 54 100 100 100 55 35 4 0 2 33 5 3 0 0 0 0 0 0 0 0 0 0 0 0 0 0
0 0 0 0 0 0 0 0 0 0 5 5 4 0 2 63 5 8 48 28 32 14 10 3 5 4 0 0 0 0 0 0 0 0 4 0 0 0 0 0 0 0 0 0
0 0 0 0 0 0 0 0 0 0 4 80 5 5 5 5 5 5 10 10 5 1 5 5 4 5 5 5 5 0 0 0 0 0 0 1 0 0 0 0 0 0 0 0
2 0 0 0 0 0 0 1 0 0 0 13 56 14 6 12 5 4 5 6 8 5 31 30 5 5 5 4 0 0 0 0 0 0 0 0 0 0 0 0 0 0 0 0
22 1 0 0 0 1 15 8 18 0 0 2 19 45 5 38 40 8 6 93 55 8 78 70 6 5 0 0 0 0 0 0 0 0 0 0 0 0 0 0 0 0 0 0
27 2 0 0 0 0 0 8 0 3 0 0 4 5 2 5 7 6 44 95 19 5 6 4 0 0 0 0 0 0 0 0 0 0 0 0 0 0 0 0 0 0 0 0
77 5 0 95 72 0 6 2 8 2 3 0 1 0 5 0 1 5 5 5 3 0 0 0 0 0 0 0 0 0 0 0 0 0 0 0 0 0 0 0 0 0 0 0
71 12 5 0 11 8 6 5 0 2 0 1 1 0 0 0 0 0 0 0 0 0 0 0 0 0 0 0 0 0 0 0 0 0 0 0 0 0 0 0 0 0 0 0
95 70 4 1 11 76 2 0 30 8 3 0 0 0 0 0 0 0 0 0 0 0 0 0 0 0 0 0 0 0 0 0 0 0 0 0 0 0 0 0 0 0 0 0
65 7 5 1 1 16 12 1 0 41 9 0 0 0 0 0 0 0 0 0 0 0 0 0 0 0 0 0 0 0 0 0 0 0 0 0 0 0 0 0 0 0 0 0
74 17 64 5 1 0 22 52 29 2 0 0 0 0 0 0 0 0 0 0 0 0 0 0 0 0 0 0 0 0 0 0 0 0 0 0 0 0 0 0 0 0 0 0
92 13 5 5 5 4 15 94 5 7 11 2 0 0 0 0 0 0 0 0 0 0 0 0 0 0 0 0 0 0 0 0 0 0 0 0 0 0 0 0 0 0 0 0
14 37 19 97 21 5 5 98 100 68 22 39 0 0 0 0 0 0 0 4 2 0 0 0 0 0 0 0 0 0 0 0 0 0 0 0 0 0 0 0 0 0 0 0
36 5 5 5 5 2 0 59 100 100 100 98 4 0 0 0 0 0 0 45 49 0 0 0 0 0 0 0 0 0 0 0 0 0 0 0 0 0 0 0 0 0 0 0
96 87 5 5 0 28 0 12 98 100 100 100 40 6 0 0 0 0 2 12 38 14 45 0 0 0 0 0 0 0 0 0 0 0 0 0 0 0 0 0 0 0 0 5
76 32 5 5 4 16 39 2 67 93 99 87 88 29 0 0 0 0 0 34 36 11 78 0 0 0 0 0 0 0 0 0 0 0 0 0 0 0 0 0 0 0 4 96
100 100 8 5 53 23 0 17 67 99 91 100 99 70 1 1 0 0 2 0 4 5 7 15 0 1 0 0 0 0 0 0 0 0 0 0 0 0 0 0 0 2 100 100
100 71 5 1 0 20 100 90 49 86 100 100 89 11 38 6 0 0 0 21 11 5 67 52 0 0 0 4 2 0 0 0 0 0 0 0 0 0 0 0 0 11 100 100
85 22 20 63 98 100 99 100 100 60 100 70 36 0 15 99 28 13 1 17 31 54 95 24 4 0 0 60 100 37 0 0 0 0 0 0 0 0 0 0 4 48 100 100
89 57 46 100 100 100 100 50 94 100 89 5 20 3 5 100 94 16 9 52 15 26 67 5 5 1 4 82 100 98 5 0 0 0 0 0 0 0 0 6 20 67 100 100
100 90 100 100 88 100 100 100 100 100 94 94 73 92 10 100 100 25 5 19 37 6 34 22 4 1 47 95 80 43 38 5 5 0 0 0 4 4 5 22 66 100 96 67
55 100 100 100 100 100 100 100 100 53 95 100 100 100 100 100 71 100 6 22 91 96 100 48 2 28 100 100 100 99 47 6 5 5 5 5 5 39 87 77 43 42 93 84
100 100 100 100 100 100 100 100 100 100 100 100 100 100 100 100 100 98 97 100 91 24 4 0 3 75 98 92 88 75 79 91 98 71 65 83 86 95 100 95 83 89 100 75
97 100 100 100 100 100 100 100 100 100 100 100 100 100 100 100 100 100 95 76 6 13 5 22 28 54 100 100 100 76 100 100 93 92 100 100 100 98 100 98 70 21 18 62
100 100 100 100 100 100 100 100 100 100 100 100 100 100 100 100 100 100 99 89 18 87 100 99 85 100 100 100 100 100 100 100 100 86 97 94 97 100 100 100 100 97 39 5

GFSNW_prec_cloud_291.txt.gz
Cloud_Cover
5 4 100 100 0 26 67 100 95 100 100 1 0 0 25 3 3 26 100 53 5 73 92 15 5 13 100 98 39 5 5 44 10 0 2 25 16 4 5 98 100 0 42 12
4 28 100 100 1 95 100 100 88 100 97 0 0 0 40 1 5 15 89 100 99 100 83 100 4 5 98 100 18 5 5 6 71 26 3 0 0 4 6 100 100 0 75 42
0 76 100 100 2 91 100 100 100 100 16 1 1 0 39 5 5 1 88 100 33 100 100 100 27 0 100 100 56 5 5 13 100 69 5 3 0 5 5 23 25 3 4 1
5 69 100 100 2 100 96 94 100 78 0 0 0 0 2 5 5 5 69 100 100 100 50 95 8 0 53 100 89 65 5 14 80 100 92 67 5 4 0 5 100 100 64 3
39 93 100 100 28 84 63 93 82 5 12 0 0 3 0 0 5 0 9 100 100 100 2 2 5 0 58 100 100 36 15 5 34 100 11 0 5 5 0 0 4 3 67 66
3 99 100 100 3 24 30 83 2 0 3 4 5 4 5 5 5 2 5 24 100 100 9 8 6 0 14 100 100 96 90 5 5 5 5 0 0 4 0 0 0 1 6 6
2 12 100 100 25 1 3 49 0 0 7 5 5 32 2 7 14 5 2 31 100 48 100 75 100 33 100 100 100 100 30 38 6 6 5 10 1 5 2 3 0 0 5 0
0 3 97 100 68 0 4 2 0 0 5 32 29 43 6 6 84 84 5 0 35 100 100 99 5 1 13 100 87 5 5 5 3 3 5 61 6 2 0 0 0 0 2 0
0 5 33 100 93 0 0 0 0 0 0 6 14 57 4 17 70 5 7 92 8 55 66 5 7 9 62 100 100 61 49 21 2 5 5 19 43 4 0 0 5 0 0 0
3 2 3 100 100 0 0 3 0 0 0 35 0 3 5 4 44 34 18 58 6 2 3 91 100 100 100 100 100 83 13 13 5 22 56 28 56 56 0 0 0 0 0 0
5 2 4 92 100 34 0 27 0 1 0 4 0 0 4 15 53 11 54 74 5 39 2 44 100 100 100 100 98 6 5 2 8 48 18 13 5 0 0 0 0 0 0 0
15 5 2 79 100 100 4 4 5 0 0 2 1 0 5 5 5 13 100 11 3 31 100 94 5 5 56 10 75 5 4 3 19 86 63 4 55 2 0 0 0 0 0 0
17 5 5 7 100 100 85 6 1 0 0 0 0 0 0 3 5 5 98 48 31 75 100 100 94 90 27 27 6 94 31 5 52 36 36 100 6 0 0 0 0 0 0 0
100 84 18 16 100 100 100 25 6 0 0 0 1 0 0 3 5 7 5 24 100 100 100 100 100 100 62 96 26 22 39 6 70 44 56 4 2 0 0 0 0 0 0 0
58 100 99 16 100 100 100 34 4 2 24 7 2 1 0 0 5 5 5 5 22 43 71 100 96 59 5 5 5 5 24 75 94 98 99 3 0 0 0 0 0 0 0 0
80 100 100 100 100 100 100 99 12 3 0 4 3 1 0 0 0 5 5 65 10 16 5 5 39 5 20 5 5 5 8 54 8 6 5 0 0 0 0 0 0 0 0 0
100 100 100 100 100 100 100 100 65 6 6 3 8 1 0 0 0 0 2 5 22 32 8 17 35 6 37 35 7 99 33 11 95 12 5 2 0 0 0 0 0 0 0 0
84 57 100 100 100 100 100 100 92 52 93 20 13 5 6 4 2 3 0 1 1 5 16 74 29 45 54 36 99 82 7 5 20 5 2 0 0 0 0 0 0 0 0 0
10 36 74 100 99 100 100 100 100 87 52 72 42 5 28 8 5 4 5 5 5 4 4 4 11 5 21 87 51 71 6 0 26 3 0 0 0 0 0 0 0 0 0 0
35 71 100 100 100 63 66 100 100 98 100 59 64 36 100 32 7 83 86 64 33 8 5 21 6 4 4 5 5 5 4 5 5 0 0 0 0 0 0 0 0 0 0 0
98 100 100 85 19 36 65 100 100 78 97 20 2 1 5 5 94 95 72 78 37 46 3 4 4 4 0 0 3 5 5 5 5 5 1 0 0 0 0 0 0 0 0 0
94 90 44 25 72 86 100 77 92 78 35 69 6 5 0 32 4 16 100 54 100 92 22 4 4 0 2 0 0 0 0 0 3 4 0 0 6 15 17 15 0 0 0 0
89 94 66 53 85 100 100 60 97 70 65 31 10 77 5 5 5 39 10 46 88 53 65 25 26 17 0 4 0 0 0 0 0 0 1 33 74 35 1 1 1 0 0 0
100 100 100 64 89 68 90 35 78 71 8 28 95 24 4 11 21 3 6 47 87 61 73 43 10 24 7 3 0 0 0 0 0 22 19 35 15 81 44 27 0 0 0 0
100 100 100 100 95 96 59 98 46 93 93 99 46 52 20 3 6 4 6 32 79 49 56 81 87 68 2 0 0 0 1 69 81 47 64 90 93 46 23 4 0 2 2 16
100 100 100 100 100 99 49 92 94 92 100 87 23 80 62 43 36 5 0 15 98 98 92 46 60 39 5 0 2 36 100 100 100 92 59 60 33 11 2 5 19 11 59 51
100 100 100 100 100 100 100 100 100 100 99 99 94 86 69 16 22 5 5 35 100 100 100 73 86 16 0 35 27 100 96 100 100 98 93 46 42 36 98 92 90 83 46 38